Regional Weather Roundup
Issued by NWS

Home | Current Version | Previous Version | Graphics & Text | Print | Product List | Glossary On
Versions: 1 2 3 4 5 6 7 8 9 10 11 12 13 14 15 16 17 18 19 20 21 22 23 24 25 26 27
000
ASUS45 KSLC 222310
RWRUT

UTAH REGIONAL WEATHER ROUNDUP
NATIONAL WEATHER SERVICE SALT LAKE CITY UT
400 PM MST SUN JAN 22 2017

UTZ001>011-023>025-230000-

NORTHERN UTAH

CITY           SKY/WX    TMP DP  RH WIND       PRES   REMARKS
BRIGHAM CITY     N/A     33  30  88 SW12G20   29.84S VSB 1   WCI  25
HILL AFB       HVY SNOW  32  28  86 S16       29.83R VSB 1/4 WCI  21
LOGAN          CLOUDY    30  23  75 CALM      29.82S
OGDEN          SNOW      31  31 100 S10       29.84R VSB 1/4 WCI  22
SALT LAKE CITY LGT SNOW  34  30  85 S18G24    29.84R FOG     WCI  23
TOOELE VALLEY  DRIZZLE   37  32  81 S12G21    29.81F WCI  30
WENDOVER       CLOUDY    30  28  93 NE6       29.77F WCI  24
HEBER CITY     LGT SNOW  30  25  80 CALM      29.86R VSB 3/4
WEST JORDAN    CLOUDY    32  32 100 S24       29.84S WCI  19

$$

UTZ011>015-024>027-230000-

CENTRAL/NORTHEAST UTAH

CITY           SKY/WX    TMP DP  RH WIND       PRES   REMARKS
PROVO AIRPORT  CLOUDY    34  29  82 S17       29.88F WCI  23
MOAB/CANYONLAN CLOUDY    36  29  75 S15       30.00R WCI  27
DELTA          CLOUDY    36  28  75 CALM      29.83F
PRICE          LGT SNOW  25  24  96 E3        29.95F FOG
RICHFIELD      PTSUNNY   37  23  56 NW2       29.86F
ROOSEVELT      CLOUDY    28  23  80 SW3       30.00S
VERNAL         CLOUDY    25  19  78 E5        29.97R WCI  19

$$

UTZ013>016-019>022-027-230000-

SOUTHERN UTAH

CITY           SKY/WX    TMP DP  RH WIND       PRES   REMARKS
BRYCE CANYON   SNOW      24  22  91 SE18      29.94F VSB 1/2 WCI  10
CEDAR CITY     CLOUDY    39  25  57 SW28G55   29.79F WCI  28
MILFORD        PTSUNNY   38  29  70 SW28G36   29.80F WCI  26
ST GEORGE      CLOUDY    41  34  75 E13       30.01F
HANKSVILLE     CLOUDY    37  28  70 MISG      30.01R
KANAB          FOG       34  34 100 CALM      30.07F VSB 1/4
BLANDING       CLOUDY    28  26  90 E3        30.14F

$$

REGIONAL REPORTS     COLORADO/ARIZONA

CITY           SKY/WX    TMP DP  RH WIND       PRES   REMARKS
CRAIG, CO      CLOUDY    27  15  61 CALM      29.93F
GRAND JUNCTION CLOUDY    39  22  50 S13       30.00R WCI  31
RIFLE, CO      CLOUDY    35  19  52 W3        29.98F
MONTROSE, CO   CLOUDY    37  16  42 CALM      30.03S
CORTEZ, CO     CLOUDY    33  25  72 E3        30.09R
COLORADO CITY  SNOW      34  34 100 E14       30.02F VSB 1/4 WCI  24
PAGE, AZ       LGT RAIN  38  31  76 S10       30.03F WCI  31
GRAND CANYON   LGT SNOW  30  29  96 S13       30.04F VSB 3/4 WCI  20
KINGMAN, AZ    LGT RAIN  44  34  67 S17G39    30.03S
FLAGSTAFF, AZ  LGT SNOW  28  26  92 SW12      30.07S FOG     WCI  18

$$

REGIONAL REPORTS    NEVADA/IDAHO/WYOMING

CITY           SKY/WX    TMP DP  RH WIND       PRES   REMARKS
LAS VEGAS, NV  LGT RAIN  45  40  82 S7        29.95S
ELY, NY        PTSUNNY   32  25  75 SE30G43   29.72F WCI  18
ELKO, NV       LGT SNOW  35  29  78 S10       29.67R WCI  27
POCATELLO, ID  LGT SNOW  33  27  78 S16       29.74F WCI  23
BURLEY, ID     CLOUDY    35  27  72 S13G18    29.67F WCI  26
FORT BRIDGER,  CLOUDY    18  13  78 N6        29.84F WCI  10
EVANSTON, WY   CLOUDY    26  14  60 S5        29.80S WCI  20
ROCK SPRINGS,  CLOUDY    25  15  66 SE8       29.83S WCI  16

$$




USA.gov is the U.S. government's official web portal to all federal, state and local government web resources and services.